EW8930 Weather Reports


time (UTC)temp
F
wind
direction
speed
knots
gust
knots
rain 1hr
in
rain 24hr
in
rain mn
in
humidity
%
barometer
mb
20260508184537 58 231 8.7 13.0 0.00 0.01 0.01 71 1010.4
20260508183036 59 232 5.2 12.2 0.00 0.01 0.01 66 1010.4
20260508181537 60 245 7.0 11.3 0.00 0.01 0.01 65 1010.5
20260508180032 59 239 6.1 12.2 0.00 0.01 0.01 67 1010.8
20260508174534 59 211 6.1 10.4 0.00 0.01 0.01 68 1010.8
20260508173028 59 207 7.0 11.3 0.00 0.01 0.01 68 1011.0
20260508171529 58 223 6.1 10.4 0.00 0.01 0.01 71 1011.2
20260508170024 58 262 7.0 13.0 0.00 0.01 0.01 71 1011.3
20260508164519 57 248 8.7 13.0 0.00 0.01 0.01 75 1011.8
20260508163016 56 236 7.0 10.4 0.00 0.01 0.01 76 1011.9
20260508161513 55 237 7.0 10.4 0.00 0.01 0.01 76 1012.3
20260508160016 54 237 4.3 11.3 0.00 0.01 0.01 76 1012.3
20260508154513 54 234 6.1 9.6 0.00 0.01 0.01 75 1012.2
20260508153013 54 263 7.0 10.4 0.00 0.01 0.01 75 1012.1
20260508151511 54 250 6.1 10.4 0.00 0.01 0.01 75 1012.2
20260508150011 55 235 7.0 8.7 0.00 0.01 0.01 74 1012.2
20260508144510 55 214 4.3 9.6 0.00 0.01 0.01 73 1012.1
20260508143008 55 279 3.5 9.6 0.00 0.01 0.01 74 1012.1
20260508141516 54 280 7.8 10.4 0.00 0.01 0.01 74 1012.1
20260508140014 54 281 4.3 8.7 0.00 0.01 0.01 77 1012.2
20260508134502 53 239 7.8 11.3 0.00 0.01 0.01 77 1012.5
20260508133103 53 296 6.1 10.4 0.00 0.01 0.01 77 1012.4
20260508131558 52 281 7.8 11.3 0.00 0.01 0.01 79 1012.4
20260508130105 51 281 7.8 12.2 0.00 0.01 0.01 79 1012.3
20260508124553 50 271 7.0 10.4 0.00 0.01 0.01 78 1012.3
20260508123056 48 268 7.0 10.4 0.00 0.01 0.01 41 1012.5
20260508121552 47 244 7.0 10.4 0.00 0.01 0.01 41 1012.6
20260508120050 47 242 5.2 8.7 0.00 0.01 0.01 41 1012.3
20260508114551 46 280 3.5 6.1 0.00 0.01 0.01 40 1012.0
20260508113046 46 227 2.6 7.0 0.00 0.01 0.01 40 1011.8
20260508111550 45 219 2.6 6.1 0.00 0.01 0.01 40 1011.8
20260508110044 44 222 2.6 5.2 0.00 0.01 0.01 41 1011.5
20260508104547 44 203 1.7 3.5 0.01 0.01 0.01 42 1011.6
20260508103045 44 219 1.7 4.3 0.01 0.01 0.01 43 1011.6
20260508101545 45 202 2.6 8.7 0.01 0.01 0.01 44 1011.4
20260508100035 45 196 4.3 7.0 0.01 0.01 0.01 49 1011.4
20260508094543 47 196 5.2 7.8 0.00 0.00 0.00 82 1011.3
20260508093033 47 218 4.3 7.8 0.00 0.00 0.00 82 1011.6
20260508091546 47 220 5.2 9.6 0.00 0.00 0.00 82 1011.7
20260508090042 48 219 6.1 12.2 0.00 0.00 0.00 81 1011.6
20260508084529 47 200 3.5 7.0 0.00 0.00 0.00 81 1011.7
20260508083028 47 266 3.5 7.8 0.00 0.00 0.00 81 1011.7
20260508081533 47 228 5.2 10.4 0.00 0.00 0.00 81 1011.7
20260508080041 47 242 5.2 8.7 0.00 0.00 0.00 82 1011.8
20260508074525 46 235 3.5 7.0 0.00 0.00 0.00 81 1011.8
20260508073025 45 219 2.6 4.3 0.00 0.00 0.00 81 1011.8
20260508071526 45 211 1.7 5.2 0.00 0.00 0.00 81 1011.9
20260508070029 45 209 2.6 5.2 0.00 0.00 0.00 82 1012.0
20260508064528 46 216 3.5 7.0 0.00 0.00 0.00 82 1012.1
20260508063018 46 221 2.6 5.2 0.00 0.00 0.00 82 1012.2
20260508061520 46 223 2.6 7.0 0.00 0.00 0.00 82 1012.3
20260508060022 47 232 4.3 8.7 0.00 0.00 0.00 81 1012.3
20260508054512 47 229 5.2 9.6 0.00 0.00 0.00 80 1012.5
20260508053010 48 251 6.1 12.2 0.00 0.00 0.00 79 1012.6
20260508051509 48 245 6.1 9.6 0.00 0.00 0.00 78 1012.4
20260508050008 49 258 6.1 13.0 0.00 0.00 0.00 77 1012.3
20260508044506 49 234 7.8 15.6 0.00 0.00 0.00 73 1012.5
20260508043001 48 201 4.3 7.8 0.00 0.00 0.00 75 1012.5
20260508041600 47 200 2.6 5.2 0.00 0.00 0.00 76 1012.7
20260508040101 47 196 2.6 3.5 0.00 0.00 0.00 76 1012.5
20260508034556 48 198 1.7 4.3 0.00 0.00 0.00 74 1012.6
20260508033114 48 220 1.7 3.5 0.00 0.00 0.00 73 1012.7
20260508031555 48 220 1.7 4.3 0.00 0.00 0.00 72 1012.8
20260508030108 49 234 3.5 5.2 0.00 0.00 0.00 71 1012.9
20260508024619 49 227 0.9 5.2 0.00 0.00 0.00 70 1013.2
20260508023054 50 203 2.6 6.1 0.00 0.00 0.00 66 1013.1
20260508021553 50 234 3.5 6.1 0.00 0.00 0.00 65 1013.1
20260508020106 50 238 5.2 9.6 0.00 0.00 0.00 64 1013.1
20260508014559 51 230 5.2 10.4 0.00 0.00 0.00 63 1013.1
20260508013105 51 238 8.7 15.6 0.00 0.00 0.00 60 1013.1
20260508011557 52 245 10.4 18.2 0.00 0.00 0.00 57 1012.8
20260508010104 53 234 9.6 15.6 0.00 0.00 0.00 55 1012.4
20260508004551 53 244 7.8 15.6 0.00 0.00 0.00 53 1012.4
20260508003050 55 260 7.8 13.9 0.00 0.00 0.00 49 1012.3
20260508001554 55 276 6.1 10.4 0.00 0.00 0.00 44 1012.1
20260508000050 55 271 3.5 7.0 0.00 0.00 0.00 46 1012.0
20260507234548 56 278 5.2 9.6 0.00 0.00 0.00 43 1012.0
20260507233046 56 267 3.5 7.8 0.00 0.00 0.00 41 1012.0
20260507231547 57 292 6.1 9.6 0.00 0.00 0.00 39 1011.8
20260507230048 57 288 7.8 10.4 0.00 0.00 0.00 39 1012.0
20260507224545 57 289 6.1 10.4 0.00 0.00 0.00 39 1012.2
20260507223044 58 277 10.4 13.9 0.00 0.00 0.00 37 1012.2
20260507221543 58 284 11.3 16.5 0.00 0.00 0.00 35 1012.1
20260507220144 57 266 7.0 12.2 0.00 0.00 0.00 39 1012.2
20260507214546 57 306 7.8 15.6 0.00 0.00 0.00 38 1012.1
20260507213048 58 309 9.6 15.6 0.00 0.00 0.00 37 1011.9
20260507211548 57 296 10.4 18.2 0.00 0.00 0.00 38 1012.2
20260507210041 58 298 7.8 14.8 0.00 0.00 0.00 38 1012.1
20260507204537 58 284 7.8 16.5 0.00 0.00 0.00 41 1012.1
20260507203035 58 287 12.2 18.2 0.00 0.00 0.00 40 1012.2
20260507201542 58 309 12.2 22.6 0.00 0.00 0.00 41 1012.2
20260507200038 57 283 13.0 20.0 0.00 0.00 0.00 42 1012.2
20260507194532 57 291 14.8 20.9 0.00 0.00 0.00 38 1012.3
20260507193029 57 326 13.0 20.0 0.00 0.00 0.00 41 1012.3
20260507191529 56 309 14.8 20.9 0.00 0.00 0.00 40 1012.6
20260507190028 57 292 12.2 20.9 0.00 0.00 0.00 39 1012.6